Temp
18 18 19 19 20 21 21 22 22 23 24 25 25 25 26 28 30 31 34 34 34 34 33 34 37 39 40 41 41 42 37 36 37 37 38 36 29 30 23 29 38 38 35 34 33
18 18 18 19 20 20 21 22 22 23 24 24 25 25 26 27 27 33 33 34 34 34 33 37 40 41 41 41 41 40 37 38 40 40 39 34 30 25 24 26 34 36 35 34 33
17 17 18 19 19 20 21 21 22 23 24 24 24 25 26 26 31 36 33 33 34 34 33 35 38 40 40 42 41 41 39 40 40 40 41 31 30 31 31 29 36 34 34 34 34
17 17 18 18 19 20 21 21 22 23 23 24 24 25 26 25 33 34 33 33 34 34 34 36 39 40 39 41 41 39 41 41 40 40 40 40 28 30 28 38 38 36 35 35 34
16 17 17 18 18 20 21 22 22 23 23 24 24 24 25 31 34 34 34 34 34 33 35 38 39 40 39 40 41 40 41 41 41 41 41 41 40 37 27 38 37 36 35 35 35
16 17 17 18 18 20 21 22 23 23 23 24 24 24 25 31 37 35 35 35 35 36 37 39 40 41 40 39 40 40 41 41 41 41 41 40 40 37 34 38 37 36 36 36 36
16 17 17 18 19 20 21 22 23 23 23 23 23 22 29 33 36 36 35 35 37 37 39 39 40 40 41 40 42 41 40 41 41 41 41 39 31 32 39 38 37 37 37 37 36
16 17 17 18 19 20 21 22 23 23 23 23 23 21 30 34 34 35 36 36 36 37 38 39 40 40 40 41 41 40 40 39 41 41 41 37 26 30 34 39 35 36 37 36 36
17 17 17 18 20 20 22 22 22 23 23 23 23 26 32 33 35 35 35 36 37 37 38 38 39 38 39 39 39 40 38 38 38 41 41 40 34 34 40 39 29 34 37 36 36
17 17 17 18 19 20 23 22 22 22 23 22 25 29 32 35 36 35 35 36 37 38 38 38 38 37 38 38 35 36 37 36 39 40 40 40 37 37 38 40 36 28 23 35 36
16 17 18 19 20 20 22 24 26 26 27 31 34 34 36 37 36 36 37 37 37 38 36 38 37 36 38 39 37 38 38 37 37 40 39 39 38 36 38 40 37 28 22 26 28
16 17 18 19 21 21 20 28 32 31 30 33 33 35 36 36 35 36 36 36 36 35 37 37 36 38 40 40 38 39 39 40 39 40 39 39 39 40 40 40 40 31 25 24 27
16 16 17 19 22 22 25 29 30 30 30 34 36 35 36 36 35 37 37 36 36 36 37 36 38 39 39 39 38 39 39 39 36 36 40 39 39 39 40 40 40 40 32 28 30
15 16 17 19 23 24 28 29 30 31 30 34 35 36 37 36 35 37 38 37 36 36 37 37 39 39 39 39 36 37 40 40 39 39 37 39 35 37 30 28 37 39 40 39 38
14 16 16 16 17 24 29 29 29 31 29 36 36 37 37 35 37 36 39 37 36 37 37 37 38 39 39 39 38 39 39 39 39 39 39 39 37 38 35 29 30 38 39 40 40
14 16 15 20 18 23 26 29 30 29 31 36 36 35 35 35 37 38 37 38 38 38 38 38 41 40 39 41 41 41 37 39 39 39 37 40 38 36 34 28 27 36 40 40 40
14 16 15 14 23 26 27 30 29 30 37 36 36 36 35 35 36 37 36 35 35 35 36 37 38 40 41 39 40 40 39 37 36 37 35 36 33 37 38 38 40 40 40 40 40
14 18 20 18 23 25 27 29 28 35 36 38 37 37 35 36 36 37 36 35 37 37 37 36 36 38 40 39 39 39 39 37 35 28 29 35 31 34 40 41 41 41 40 40 39
14 20 23 23 23 25 28 28 31 35 37 37 37 35 36 37 37 37 36 36 37 37 36 37 37 40 40 40 40 38 38 40 38 33 34 37 38 38 40 40 40 40 39 39 39
12 19 25 28 26 26 28 27 33 36 36 36 34 36 35 36 36 37 36 37 37 38 39 38 37 39 40 40 40 39 39 38 38 32 32 36 37 35 38 39 40 39 39 39 38
15 26 29 27 27 28 28 30 33 36 36 34 35 36 36 37 37 36 37 38 39 39 39 39 38 38 40 39 38 39 38 36 39 38 37 37 36 36 33 37 39 40 39 39 38
22 26 28 28 27 29 29 31 30 35 36 35 35 35 36 37 37 37 37 38 40 39 38 38 38 37 39 41 41 40 39 39 38 36 39 39 35 38 37 39 40 40 39 39 38
23 28 28 28 28 30 32 32 34 35 35 35 34 36 37 36 35 37 38 39 40 39 38 38 37 36 37 39 40 39 40 41 41 41 38 37 35 29 33 33 37 39 39 36 37
22 28 30 29 30 30 31 33 33 35 34 35 35 36 36 35 36 36 37 38 39 39 34 37 38 37 35 29 37 38 39 40 40 39 36 34 31 28 30 30 32 39 39 38 37
23 28 29 28 30 30 32 33 33 33 35 35 34 35 35 34 35 36 37 38 39 35 36 37 36 37 37 34 37 39 39 40 39 39 37 34 31 27 25 26 31 38 39 38 37
22 25 27 27 30 31 29 32 33 34 35 34 34 35 35 34 29 27 29 33 37 38 37 38 36 37 36 37 37 38 40 39 38 39 38 37 29 29 27 28 27 38 38 37 35
21 24 25 25 29 30 31 32 33 34 35 36 35 35 35 29 29 24 24 29 36 38 37 37 36 36 35 35 35 35 38 38 37 35 38 37 34 29 30 27 30 37 37 37 35
Height
809 806 803 800 797 793 790 786 783 780 777 775 773 771 768 764 760 757 752 748 749 746 744 740 734 725 720 713 714 710 750 758 753 747 743 732 761 752 768 756 726 726 738 748 760
810 807 804 800 797 794 790 786 783 780 777 774 772 770 767 764 760 753 749 747 748 746 745 737 725 720 719 716 715 728 751 745 727 722 730 745 770 776 779 763 748 737 743 752 759
811 807 804 800 797 793 789 785 782 778 776 773 771 769 768 764 758 740 743 746 746 746 745 742 732 722 723 713 720 723 744 725 726 725 718 752 759 754 763 769 735 744 748 752 758
812 808 804 800 796 792 788 785 781 777 774 772 770 768 767 766 768 741 743 744 745 745 744 739 728 727 733 727 718 738 723 723 722 720 721 727 749 752 744 728 727 736 743 751 757
812 808 804 800 796 792 787 782 778 775 772 771 769 768 767 761 748 743 743 743 744 744 742 735 729 723 735 726 720 729 721 716 712 714 717 717 724 741 757 722 727 735 742 748 752
811 807 803 799 794 790 785 780 776 773 772 771 769 768 767 765 737 741 743 742 741 741 737 732 726 718 728 728 728 724 722 717 714 714 714 726 725 726 736 721 731 736 737 739 745
809 805 801 797 792 788 783 777 773 772 771 770 769 769 763 749 738 738 741 741 738 736 733 728 725 725 719 725 711 721 736 721 718 715 720 722 765 757 722 725 737 740 739 734 739
809 804 800 796 791 786 780 775 772 770 770 769 769 770 757 740 740 739 739 739 737 735 733 728 724 725 726 715 721 733 731 749 722 719 716 732 799 752 734 726 738 741 742 745 742
808 804 799 795 789 784 778 774 771 770 769 768 769 766 751 735 736 736 737 736 735 735 734 731 731 734 728 739 744 735 756 752 744 714 721 722 759 741 717 723 753 743 740 741 745
807 802 797 793 788 782 775 772 769 769 769 770 767 766 738 732 728 732 734 735 732 730 732 733 738 745 739 743 781 772 761 755 746 725 723 730 742 727 720 718 733 748 778 746 742
805 801 796 791 786 781 773 771 769 769 764 749 740 737 724 724 726 729 729 731 731 731 748 735 752 758 743 727 741 743 749 755 741 718 730 733 734 733 720 719 729 746 764 767 755
805 800 794 789 783 779 775 767 756 758 756 736 737 729 725 726 731 727 728 735 738 749 737 744 755 732 722 720 739 737 741 738 730 722 730 731 731 718 714 719 720 738 758 759 744
804 799 793 786 779 775 771 764 760 758 757 730 720 724 724 726 731 721 722 728 738 745 738 748 734 721 724 728 741 734 736 739 755 744 722 730 739 730 718 717 717 714 729 733 729
803 798 793 785 780 774 766 762 760 758 767 729 721 717 716 719 729 713 712 723 732 742 734 735 717 721 728 731 741 748 718 725 734 743 761 726 776 745 756 768 733 720 715 714 716
801 797 793 792 787 774 765 763 761 757 788 715 715 707 709 723 710 716 707 717 733 730 730 737 726 725 730 724 721 731 721 730 728 736 738 738 759 741 748 776 755 724 717 713 712
798 795 791 788 783 771 768 764 762 776 774 720 710 721 724 721 713 705 713 711 712 722 719 720 699 712 715 705 704 706 738 729 728 733 761 726 745 754 758 765 761 728 712 712 709
794 790 788 789 774 769 768 763 777 777 706 720 718 713 722 725 723 714 726 731 738 752 745 727 720 703 701 718 707 715 730 764 772 764 781 749 770 743 724 717 710 713 709 710 711
788 782 775 773 771 771 770 769 784 727 718 696 704 708 725 716 722 716 727 735 721 723 733 747 754 718 701 717 726 723 726 754 786 828 813 766 791 761 706 698 700 698 703 709 714
783 775 769 765 767 770 767 775 755 723 703 707 705 721 719 710 714 716 723 727 718 716 736 733 737 701 699 701 708 726 737 709 738 776 789 755 739 721 703 706 706 703 704 713 717
786 775 760 756 762 766 767 766 733 708 706 710 731 711 724 714 719 714 718 707 712 704 698 710 734 700 698 697 700 713 709 740 733 793 801 756 749 755 728 722 711 710 712 713 717
784 763 748 755 760 760 765 749 728 708 708 724 721 714 710 706 708 715 712 699 694 697 697 705 713 712 695 712 719 719 726 735 723 730 754 760 754 722 732 715 713 709 710 714 720
778 764 749 753 762 751 752 737 722 711 703 714 713 713 711 701 703 708 712 698 680 688 707 702 710 725 709 684 686 694 710 716 734 750 723 728 758 716 718 704 700 704 709 710 717
774 750 746 749 760 746 733 729 715 710 714 713 718 708 699 707 717 701 695 678 677 689 702 700 720 739 725 703 689 709 699 695 696 697 724 741 758 736 734 726 708 704 707 708 717
778 754 739 744 738 737 733 722 721 704 711 705 709 701 704 710 700 709 700 683 675 682 692 693 709 719 738 766 716 715 704 694 699 722 734 748 767 764 762 745 728 703 708 712 718
776 749 739 746 737 734 725 717 715 719 706 706 712 710 712 721 709 704 694 686 679 686 692 698 721 708 709 726 710 696 697 697 708 702 729 738 753 769 754 757 726 710 707 712 719
775 762 751 745 729 723 730 725 718 707 705 714 714 706 706 713 733 740 718 702 687 684 695 691 717 708 718 705 708 702 688 694 703 702 705 712 765 753 749 730 743 716 712 715 721
778 766 761 752 736 732 723 717 716 704 696 692 698 702 701 722 718 732 721 703 683 682 693 698 705 714 729 716 726 732 701 700 707 708 705 716 717 731 743 757 750 721 717 716 721
Wind_Speed
22 21 21 21 21 20 20 21 20 17 15 14 13 14 15 18 21 15 15 1 3 10 13 17 18 17 13 11 2 4 5 9 9 10 3 13 21 16 32 18 11 16 19 23 27
22 23 22 23 22 22 22 21 22 17 14 13 12 13 13 16 18 19 11 7 6 11 11 19 15 10 12 2 3 5 5 7 6 9 11 30 19 23 11 18 5 20 21 27 26
22 23 24 24 24 25 25 23 23 17 13 12 11 11 11 14 12 14 7 9 9 13 15 16 19 18 18 2 4 6 6 4 10 8 12 36 22 17 6 11 15 19 20 20 22
22 24 25 26 26 27 26 25 24 18 12 10 10 10 9 5 6 6 4 6 9 11 16 18 18 17 6 6 6 6 3 2 1 5 4 9 20 18 26 19 18 19 19 18 17
22 24 25 26 28 28 29 28 23 17 12 9 8 9 6 9 19 7 3 5 7 9 15 15 17 15 8 19 6 8 2 4 6 7 6 1 1 14 21 19 19 19 18 17 16
23 25 26 28 29 29 32 28 21 14 10 7 6 7 5 15 6 9 7 6 12 14 17 16 15 13 5 20 1 8 6 9 2 7 3 5 10 9 20 18 18 18 18 17 18
24 26 28 29 29 29 33 27 17 10 7 5 5 4 10 17 3 7 10 11 13 16 15 17 18 15 12 15 4 4 12 13 9 3 1 12 19 27 6 14 13 14 12 14 18
25 27 29 30 29 30 31 23 11 8 5 4 5 3 7 12 21 14 12 15 14 13 14 18 10 12 16 15 14 11 12 12 5 3 8 13 12 36 28 13 17 7 9 9 14
26 27 29 30 30 31 30 16 9 7 4 4 5 9 15 5 14 18 16 17 16 15 16 15 7 14 17 15 12 13 11 6 13 10 4 12 10 26 14 10 26 19 10 12 9
26 27 30 31 30 34 27 15 12 5 5 7 15 10 16 12 15 18 19 20 14 14 15 13 12 15 15 15 3 12 14 16 13 8 2 5 12 8 18 7 16 16 9 9 13
26 28 29 31 29 34 23 8 5 6 12 15 6 12 5 11 7 7 16 20 17 16 17 18 15 17 21 20 9 16 14 21 18 7 3 11 9 19 18 3 16 18 19 13 22
27 28 29 30 31 24 11 7 11 12 11 17 21 19 15 3 8 13 16 16 18 18 18 18 19 21 22 19 5 17 12 9 8 6 7 9 6 12 9 6 6 25 27 19 17
27 28 30 31 29 11 12 18 10 11 8 16 20 20 15 13 13 14 18 18 17 20 21 20 21 20 21 17 16 14 14 4 8 14 9 10 11 5 1 1 7 7 26 18 20
27 27 28 33 13 18 15 5 9 8 6 12 11 11 16 16 17 21 20 18 15 21 21 20 22 21 19 22 9 20 16 5 11 10 10 8 10 14 15 11 16 8 8 16 17
28 27 26 24 19 12 12 11 10 11 6 14 11 9 10 15 4 18 18 17 22 20 15 20 21 22 17 22 27 9 5 9 17 10 16 14 9 6 13 6 21 10 9 9 15
29 26 27 11 11 17 15 12 10 6 11 11 9 11 15 18 18 17 15 16 20 21 17 21 17 16 22 21 19 14 16 15 13 13 13 16 12 10 10 18 29 20 12 9 10
31 27 29 18 11 10 12 9 6 9 6 9 12 13 14 15 18 14 16 18 19 18 18 16 19 18 22 17 13 17 16 9 12 12 4 15 9 7 17 17 7 11 9 11 7
34 30 24 19 13 13 12 7 9 12 18 6 1 13 14 15 16 17 13 16 22 19 15 15 14 22 19 18 19 22 15 13 12 5 12 6 6 5 12 10 7 8 13 12 9
35 18 14 12 14 12 8 11 10 12 5 2 10 9 12 14 10 18 17 17 19 22 21 15 16 20 15 17 22 9 14 19 13 3 10 15 11 17 12 9 7 10 17 13 11
23 15 19 15 11 11 8 17 20 20 5 4 13 11 12 14 16 15 15 18 19 22 22 21 14 16 19 19 19 17 17 11 12 10 6 15 7 9 8 6 4 11 15 15 14
9 5 15 12 11 7 11 17 18 19 6 8 14 14 10 10 15 16 16 14 18 19 20 21 19 13 19 17 19 16 13 6 18 13 6 5 9 5 3 5 9 8 13 16 15
14 7 11 13 8 10 13 20 22 16 10 11 10 13 15 13 10 14 19 14 14 16 21 20 14 15 17 22 20 17 20 23 15 12 12 8 9 13 3 5 9 10 10 18 16
5 9 11 14 9 12 19 21 23 17 14 9 12 14 16 16 6 13 13 17 12 13 16 14 17 15 15 15 18 18 21 22 17 17 9 4 6 11 21 22 14 8 12 13 15
5 4 6 8 12 18 17 17 18 8 17 15 14 15 12 11 12 12 13 11 12 11 9 13 18 20 9 14 15 19 23 18 18 12 8 7 10 3 11 18 16 9 11 16 13
4 6 8 6 11 16 19 17 14 16 16 17 15 16 13 13 16 15 12 15 15 13 9 16 20 21 8 20 23 21 23 18 9 16 6 10 9 7 9 10 17 10 11 10 13
5 8 10 13 16 13 15 15 17 11 13 17 19 18 17 20 10 12 8 13 14 13 15 18 18 19 10 6 15 19 12 6 8 18 10 7 20 15 13 25 17 9 7 8 13
13 15 7 10 14 10 11 13 16 15 13 13 16 16 11 8 15 13 22 20 29 15 17 18 16 16 11 2 11 20 10 11 2 13 10 4 14 19 9 16 25 9 8 9 12
Wind_Direction
15 12 9 4 359 353 349 348 344 331 321 316 316 315 318 316 309 297 262 345 257 288 291 286 271 260 240 263 234 28 301 131 179 104 118 92 0 45 335 328 91 77 141 135 149
12 9 5 2 359 352 348 344 343 333 321 314 312 313 319 316 311 281 261 254 268 271 282 283 318 305 268 213 256 226 234 45 356 11 88 78 93 103 158 275 92 97 110 136 153
7 4 1 358 355 353 348 342 340 331 318 309 308 310 311 319 284 249 205 223 251 252 262 283 289 281 277 163 348 6 90 43 88 357 357 109 132 89 257 273 104 121 132 145 152
1 359 357 356 350 348 346 341 335 327 317 305 302 302 304 308 261 105 157 217 231 243 261 271 276 261 349 268 124 255 203 184 106 125 330 341 168 124 199 95 113 125 135 143 157
357 354 352 350 349 344 342 337 331 324 314 303 298 304 308 235 253 195 243 235 227 223 247 262 269 279 25 310 127 264 315 237 143 175 272 80 91 109 305 102 116 127 135 148 159
352 350 348 348 346 343 341 334 327 316 305 294 286 299 257 256 285 161 220 220 226 217 238 251 270 298 287 250 1 308 286 276 241 107 152 309 31 106 231 105 124 141 155 162 158
345 345 344 345 344 341 340 333 324 310 301 283 272 309 265 245 261 231 228 236 232 233 241 245 262 290 266 291 346 250 263 251 195 152 124 59 15 319 88 137 142 149 177 153 146
340 340 341 341 340 339 338 333 327 308 293 257 253 273 261 247 240 251 242 234 243 241 261 278 286 275 283 287 239 239 245 266 122 227 109 110 172 250 270 169 99 204 160 150 148
338 334 336 337 338 336 333 325 316 303 273 243 261 226 259 182 222 232 226 232 230 236 242 257 280 262 257 253 256 230 233 115 220 215 270 232 167 226 218 180 143 217 163 153 180
337 333 332 333 335 333 325 310 293 278 272 250 265 269 247 236 214 219 223 226 236 227 225 223 236 245 245 253 152 265 289 323 273 130 243 307 152 142 273 214 142 112 284 177 173
336 333 330 329 330 331 323 313 218 196 229 239 215 242 138 224 103 206 202 209 229 237 220 218 229 234 235 240 109 262 199 206 232 90 251 285 155 172 220 197 140 141 104 357 301
335 332 329 326 327 321 297 270 8 324 296 242 242 249 268 280 254 217 216 206 213 228 217 229 221 234 241 251 9 241 258 262 48 338 245 262 240 207 158 199 226 161 152 182 215
333 332 329 325 324 296 247 292 306 306 278 274 232 223 230 214 243 225 195 206 211 222 220 225 227 229 241 235 233 252 257 114 132 244 248 260 262 298 315 13 220 230 160 174 188
330 330 330 332 309 323 289 353 309 328 278 235 186 220 215 209 238 242 186 209 220 219 230 226 242 221 230 250 48 274 232 356 205 241 257 198 260 237 101 217 266 210 194 185 149
328 327 324 330 294 301 352 321 324 283 278 136 156 120 187 195 82 204 197 210 222 208 221 231 229 245 214 238 188 234 45 246 284 259 260 207 249 157 129 31 329 260 198 227 148
325 323 322 339 264 261 290 302 278 238 245 163 142 194 210 206 243 167 211 207 225 244 221 240 229 232 252 243 241 221 181 238 255 252 256 246 205 172 166 167 214 236 198 195 158
322 315 305 280 253 336 318 275 233 244 105 165 183 185 209 197 227 177 195 201 217 221 240 229 247 240 236 248 235 236 251 239 238 230 58 39 27 278 165 195 173 159 180 153 143
321 310 288 247 261 283 260 237 246 239 244 69 347 175 201 213 209 208 208 211 216 225 224 218 215 242 218 230 231 225 230 245 240 65 307 132 207 247 182 132 150 151 148 147 140
327 311 249 245 227 232 238 227 230 252 283 113 222 247 208 217 205 224 209 216 212 229 237 209 229 212 223 224 236 259 261 254 263 206 254 252 256 232 136 135 155 157 143 148 149
325 299 260 215 182 208 232 245 254 280 330 348 274 208 238 203 197 219 208 222 223 211 242 256 261 206 191 216 231 212 248 252 272 173 222 232 132 132 133 164 183 159 152 150 136
288 244 124 155 183 218 231 239 247 259 297 259 274 294 260 249 205 228 237 217 215 221 217 251 262 252 205 201 219 223 233 266 260 271 291 251 118 83 86 324 160 169 166 154 142
280 270 155 172 203 223 234 246 269 289 193 245 277 302 302 284 254 211 239 227 200 223 210 223 253 255 248 196 212 235 218 214 240 217 255 277 148 39 329 258 160 171 180 156 146
275 257 163 198 229 230 224 248 260 251 256 220 237 244 254 266 274 274 240 243 222 199 243 208 239 261 246 239 186 225 240 228 243 255 264 317 110 347 353 338 332 158 161 147 146
280 249 180 204 252 281 285 230 247 233 266 244 258 266 259 258 261 272 260 245 217 207 221 265 232 238 244 232 283 210 237 242 254 255 83 78 119 94 260 329 318 147 158 152 158
243 252 343 262 216 233 265 283 244 243 203 245 256 250 265 261 261 262 249 261 215 202 199 229 241 247 180 182 268 230 216 226 274 280 90 168 133 115 100 285 275 262 163 169 156
290 344 341 299 288 265 236 262 280 248 229 211 229 242 238 252 39 344 320 291 216 187 214 215 233 241 257 211 270 304 202 251 245 297 114 150 121 168 199 199 269 217 153 161 132
351 332 284 289 282 277 264 245 248 251 260 241 230 239 272 357 317 125 283 274 270 189 210 216 223 232 221 165 245 265 212 222 192 317 289 182 158 169 170 305 260 161 168 154 139